| time (UTC) | temp F | wind direction | speed knots | gust knots | rain 1hr in | rain 24hr in | rain mn in | humidity % | barometer mb |
| 20260507233606 | 48 | 265 | 0.9 | 1.7 | 0.00 | 0.00 | 0.00 | 6 | |
| 20260507231941 | 48 | 267 | 0.9 | 0.9 | 0.00 | 0.00 | 0.00 | 6 | |
| 20260507230043 | 48 | 233 | 1.7 | 2.6 | 0.00 | 0.00 | 0.00 | 6 | |
| 20260507224403 | 50 | 259 | 0.9 | 0.9 | 0.00 | 0.00 | 0.00 | 6 | |
| 20260507222723 | 51 | 293 | 1.7 | 2.6 | 0.00 | 0.00 | 0.00 | 6 | |
| 20260507221038 | 52 | 263 | 0.9 | 0.9 | 0.00 | 0.00 | 0.00 | 5 | |
| 20260507215113 | 52 | 265 | 0.9 | 1.7 | 0.00 | 0.00 | 0.00 | 5 | |
| 20260507213513 | 51 | 287 | 1.7 | 2.6 | 0.00 | 0.00 | 0.00 | 5 | |
| 20260507211633 | 52 | 357 | 1.7 | 0.9 | 0.00 | 0.00 | 0.00 | 5 | |
| 20260507205953 | 53 | 261 | 4.3 | 5.2 | 0.00 | 0.00 | 0.00 | 5 | |
| 20260507204058 | 54 | 248 | 2.6 | 2.6 | 0.00 | 0.00 | 0.00 | 5 | |
| 20260507202448 | 53 | 295 | 2.6 | 3.5 | 0.00 | 0.00 | 0.00 | 5 | |
| 20260507200718 | 53 | 269 | 1.7 | 1.7 | 0.00 | 0.00 | 0.00 | 5 | |
| 20260507194749 | 54 | 256 | 1.7 | 3.5 | 0.00 | 0.00 | 0.00 | 5 | |
| 20260507192928 | 55 | 294 | 3.5 | 4.3 | 0.00 | 0.00 | 0.00 | 4 | |
| 20260507191027 | 53 | 270 | 1.7 | 4.3 | 0.00 | 0.00 | 0.00 | 4 | |
| 20260507190946 | 53 | 270 | 1.7 | 4.3 | 0.00 | 0.00 | 0.00 | 4 | |
| 20260507185138 | 54 | 258 | 1.7 | 2.6 | 0.00 | 0.00 | 0.00 | 4 | |
| 20260507183213 | 55 | 324 | 3.5 | 2.6 | 0.00 | 0.00 | 0.00 | 4 | |
| 20260507181322 | 54 | 270 | 2.6 | 3.5 | 0.00 | 0.00 | 0.00 | 5 | |
| 20260507175638 | 55 | 246 | 1.7 | 3.5 | 0.00 | 0.00 | 0.00 | 5 | |
| 20260507173758 | 55 | 304 | 2.6 | 4.3 | 0.00 | 0.00 | 0.00 | 4 | |
| 20260507172158 | 54 | 286 | 2.6 | 4.3 | 0.00 | 0.00 | 0.00 | 4 | |
| 20260507170543 | 55 | 352 | 4.3 | 5.2 | 0.00 | 0.00 | 0.00 | 4 | |
| 20260507164858 | 57 | 321 | 3.5 | 3.5 | 0.00 | 0.00 | 0.00 | 4 | |
| 20260507163126 | 55 | 240 | 0.9 | 1.7 | 0.00 | 0.00 | 0.00 | 5 | |
| 20260507161318 | 58 | 230 | 2.6 | 1.7 | 0.00 | 0.00 | 0.00 | 4 | |
| 20260507155518 | 59 | 264 | 1.7 | 2.6 | 0.00 | 0.00 | 0.00 | 4 | |
| 20260507153923 | 58 | 250 | 0.9 | 1.7 | 0.00 | 0.00 | 0.00 | 4 | |
| 20260507152326 | 58 | 244 | 0.9 | 3.5 | 0.00 | 0.00 | 0.00 | 5 | |
| 20260507150603 | 57 | 238 | 1.7 | 1.7 | 0.00 | 0.00 | 0.00 | 4 | |
| 20260507144846 | 56 | 247 | 1.7 | 2.6 | 0.00 | 0.00 | 0.00 | 5 | |
| 20260507142947 | 55 | 254 | 2.6 | 3.5 | 0.00 | 0.00 | 0.00 | 5 | |
| 20260507140953 | 54 | 256 | 2.6 | 6.1 | 0.00 | 0.00 | 0.00 | 5 | |
| 20260507135038 | 53 | 261 | 1.7 | 0.9 | 0.00 | 0.00 | 0.00 | 5 | |
| 20260507133118 | 49 | 252 | 0.9 | 1.7 | 0.00 | 0.00 | 0.00 | 6 | |
| 20260507131418 | 49 | 334 | 0.9 | 0.9 | 0.00 | 0.00 | 0.00 | 6 | |
| 20260507125701 | 47 | 251 | 0.9 | 3.5 | 0.00 | 0.00 | 0.00 | 6 | |
| 20260507123912 | 46 | 50 | 3.5 | 4.3 | 0.00 | 0.00 | 0.00 | 6 | |
| 20260507122203 | 46 | 262 | 0.0 | 0.9 | 0.00 | 0.00 | 0.00 | 7 | |
| 20260507120246 | 46 | 266 | 1.7 | 1.7 | 0.00 | 0.00 | 0.00 | 7 | |
| 20260507114453 | 47 | 260 | 0.9 | 1.7 | 0.00 | 0.00 | 0.00 | 8 | |
| 20260507112826 | 46 | 237 | 0.9 | 0.9 | 0.00 | 0.00 | 0.00 | 8 | |
| 20260507111227 | 46 | 267 | 0.0 | 0.0 | 0.00 | 0.00 | 0.00 | 8 | |
| 20260507105533 | 46 | 177 | 0.9 | 0.0 | 0.00 | 0.00 | 0.00 | 8 | |
| 20260507103833 | 45 | 310 | 1.7 | 1.7 | 0.00 | 0.00 | 0.00 | 8 | |
| 20260507102133 | 45 | 254 | 0.0 | 0.9 | 0.00 | 0.00 | 0.00 | 9 | |
| 20260507100443 | 45 | 260 | 0.9 | 1.7 | 0.00 | 0.00 | 0.00 | 9 | |
| 20260507094813 | 45 | 253 | 0.0 | 0.0 | 0.00 | 0.00 | 0.00 | 9 | |
| 20260507093111 | 45 | 261 | 0.0 | 0.0 | 0.00 | 0.00 | 0.00 | 9 | |
| 20260507091335 | 44 | 0 | 0.0 | 0.0 | 0.00 | 0.00 | 0.00 | 9 | |
| 20260507085738 | 44 | 244 | 0.0 | 0.9 | 0.00 | 0.00 | 0.00 | 9 | |
| 20260507083914 | 45 | 242 | 0.9 | 0.9 | 0.00 | 0.00 | 0.00 | 9 | |
| 20260507082148 | 44 | 0 | 0.0 | 0.9 | 0.00 | 0.00 | 0.00 | 9 | |
| 20260507080233 | 44 | 232 | 1.7 | 1.7 | 0.00 | 0.00 | 0.00 | 8 | |
| 20260507074608 | 44 | 191 | 0.9 | 2.6 | 0.00 | 0.00 | 0.00 | 8 | |
| 20260507072646 | 44 | 264 | 0.0 | 0.9 | 0.00 | 0.00 | 0.00 | 8 | |
| 20260507070653 | 44 | 0 | 0.0 | 0.0 | 0.00 | 0.00 | 0.00 | 9 | |
| 20260507064758 | 44 | 247 | 0.0 | 0.9 | 0.00 | 0.00 | 0.00 | 8 | |
| 20260507062840 | 44 | 0 | 0.0 | 1.7 | 0.00 | 0.00 | 0.00 | 8 | |
| 20260507060916 | 44 | 263 | 1.7 | 1.7 | 0.00 | 0.00 | 0.00 | 8 | |
| 20260507055023 | 45 | 242 | 0.0 | 2.6 | 0.00 | 0.00 | 0.00 | 8 | |
| 20260507053331 | 45 | 268 | 0.0 | 1.7 | 0.00 | 0.00 | 0.00 | 8 | |
| 20260507051435 | 45 | 130 | 0.0 | 0.9 | 0.00 | 0.00 | 0.00 | 8 | |
| 20260507045817 | 45 | 235 | 0.9 | 1.7 | 0.00 | 0.00 | 0.00 | 8 | |
| 20260507043853 | 45 | 219 | 0.9 | 1.7 | 0.00 | 0.00 | 0.00 | 8 | |
| 20260507042018 | 45 | 0 | 0.0 | 0.9 | 0.00 | 0.00 | 0.00 | 8 | |
| 20260507034334 | 46 | 0 | 0.0 | 0.0 | 0.00 | 0.00 | 0.00 | 8 | |
| 20260507032418 | 46 | 256 | 0.0 | 0.0 | 0.00 | 0.00 | 0.00 | 8 | |
| 20260507030713 | 46 | 252 | 0.0 | 0.0 | 0.00 | 0.00 | 0.00 | 8 | |
| 20260507025103 | 46 | 0 | 0.0 | 0.0 | 0.00 | 0.00 | 0.00 | 8 | |
| 20260507023153 | 46 | 0 | 0.0 | 0.0 | 0.00 | 0.00 | 0.00 | 8 | |
| 20260507021432 | 46 | 249 | 0.9 | 1.7 | 0.00 | 0.00 | 0.00 | 8 | |
| 20260507021358 | 46 | 249 | 0.9 | 1.7 | 0.00 | 0.00 | 0.00 | 8 | |
| 20260507015533 | 46 | 248 | 0.0 | 0.0 | 0.00 | 0.00 | 0.00 | 8 | |
| 20260507013928 | 46 | 0 | 0.0 | 0.0 | 0.00 | 0.00 | 0.00 | 8 | |
| 20260507012053 | 46 | 0 | 0.0 | 0.0 | 0.00 | 0.00 | 0.00 | 8 | |
| 20260507010233 | 47 | 204 | 0.9 | 0.9 | 0.00 | 0.00 | 0.00 | 8 | |
| 20260507004533 | 47 | 234 | 0.0 | 0.0 | 0.00 | 0.00 | 0.00 | 8 | |
| 20260507002738 | 47 | 220 | 0.9 | 1.7 | 0.00 | 0.00 | 0.00 | 8 | |
| 20260507001047 | 47 | 219 | 0.0 | 0.9 | 0.00 | 0.00 | 0.00 | 8 | |
| 20260506235335 | 47 | 209 | 0.9 | 0.0 | 0.00 | 0.00 | 0.00 | 8 |